Regional Weather Roundup
Issued by NWS

Home | Current Version | Previous Version | Text Only | Print | Product List | Glossary Off
Versions: 1 2 3 4 5 6 7 8 9 10 11 12 13 14 15 16 17 18 19 20 21 22 23 24 25 26 27 28 29 30 31 32 33 34 35 36 37 38 39 40 41 42 43 44 45 46 47 48 49 50

000
ASUS43 KLSX 230007
RWRMO

WEATHER SUMMARY FOR MISSOURI
NATIONAL WEATHER SERVICE SPRINGFIELD MO
700 PM CDT FRI SEP 22 2017

NOTE: "FAIR" INDICATES FEW OR NO CLOUDS BELOW 12,000 FEET WITH NO
       SIGNIFICANT WEATHER AND/OR OBSTRUCTIONS TO VISIBILITY.
       CURRENT SKY AND/OR WEATHER CONDITIONS ARE NOT AVAILABLE FOR
       CHILLICOTHE AND FARMINGTON.

MOZ001>031-035>038-043-044-053-054-230100-
...NORTHERN AND WESTERN MISSOURI...

CITY           SKY/WX    TMP DP  RH WIND       PRES   REMARKS
KANSAS CTY INT PTCLDY    81  69  67 S9        29.93R
6HR MIN TEMP:  81; 6HR MAX TEMP:  88;

KANSAS C DTWN  CLEAR     87  69  54 S12       29.92S HX  91
6HR MIN TEMP:  87; 6HR MAX TEMP:  92;

LEE`S SUMMIT   CLEAR     85  69  58 S8        29.95R
6HR MIN TEMP:  84; 6HR MAX TEMP:  90;

ST JOSEPH      CLEAR     85  70  60 S13       29.90S
6HR MIN TEMP:  85; 6HR MAX TEMP:  93;

CHILLICOTHE      N/A     85  69  58 S7        29.95R
6HR MIN TEMP:  85; 6HR MAX TEMP:  91;

KIRKSVILLE     CLEAR     81  67  62 S7        29.97S
6HR MIN TEMP:  81; 6HR MAX TEMP:  93;


$$
MOZ066>068-077>081-088>096-101>105-230100-
...SOUTHWEST MISSOURI...

CITY           SKY/WX    TMP DP  RH WIND       PRES   REMARKS
SPRINGFIELD    CLEAR     84  67  56 S6        29.98S
6HR MIN TEMP:  84; 6HR MAX TEMP:  92;

JOPLIN         CLEAR     83  68  60 S8        29.96S
6HR MIN TEMP:  83; 6HR MAX TEMP:  89;

BRANSON        PTCLDY    86  63  45 S6        30.00S

$$
MOZ032>034-039>042-045>050-055>058-069>072-230100-
...CENTRAL MISSOURI...

CITY           SKY/WX    TMP DP  RH WIND       PRES   REMARKS
COLUMBIA       CLEAR     85  68  56 S3        29.98S
6HR MIN TEMP:  85; 6HR MAX TEMP:  91;

JEFFERSON CITY CLEAR     87  68  52 CALM      29.95S HX  90
6HR MIN TEMP:  87; 6HR MAX TEMP:  91;

ROLLA          CLEAR     83  66  56 S5        30.00F
6HR MIN TEMP:  83; 6HR MAX TEMP:  93;

SEDALIA        CLEAR     83  71  67 SE6       29.97F
6HR MIN TEMP:  83; 6HR MAX TEMP:  91;

WHITEMAN AFB   CLEAR     82  73  74 S5        29.95S
WARRENSBURG    CLEAR     82  68  61 SE6       29.95S
OSAGE BEACH    CLEAR     84  69  60 SE5       29.98S

$$
MOZ051-052-059>065-230100-
...EAST CENTRAL MISSOURI...

CITY           SKY/WX    TMP DP  RH WIND       PRES   REMARKS
ST LOUIS INTL  PTCLDY    90  60  36 SE7       29.98F
6HR MIN TEMP:  90; 6HR MAX TEMP:  95;

SPIRIT OF STL  PTCLDY    80  67  64 SE3       29.96F
6HR MIN TEMP:  80; 6HR MAX TEMP:  94;

ST CHARLES     CLEAR     87  62  43 E5        29.97R
6HR MIN TEMP:  87; 6HR MAX TEMP:  96;


$$
MOZ072>076-082>087-097>100-106>115-230100-
...SOUTH CENTRAL AND SOUTHEAST MISSOURI...

CITY           SKY/WX    TMP DP  RH WIND       PRES   REMARKS
CAPE GIRARDEAU CLEAR     84  67  56 SE5       29.97S
6HR MIN TEMP:  84; 6HR MAX TEMP:  95;

FARMINGTON     CLEAR     82  65  56 E5        30.01S
6HR MIN TEMP:  82; 6HR MAX TEMP:  92;

POPLAR BLUFF   CLEAR     83  69  62 CALM      29.96F
6HR MIN TEMP:  83; 6HR MAX TEMP:  93;

WEST PLAINS    CLEAR     84  64  50 CALM      30.02S
6HR MIN TEMP:  84; 6HR MAX TEMP:  92;


$$



USA.gov is the U.S. government's official web portal to all federal, state and local government web resources and services.